Location: Sceptre
(50.8619°N, 109.2670°W)
Time: 22:28:42
(UTC+00:00)

Envisat - Pass Details

Date: 31 January 2022
Orbit: 764 x 765 km, 98.2° (Epoch: 21 May)

Event Time Altitude Azimuth Distance (km) Brightness Sun altitude
Rises 12:49:49 0° 11° (N) 3,244 6.3 -19.7°
Reaches altitude 10° 12:52:09 10° 7° (N) 2,314 5.5 -19.3°
Maximum altitude 12:57:08 57° 291° (WNW) 903 3.0 -18.5°
Drops below altitude 10° 13:02:05 10° 213° (SSW) 2,299 5.2 -17.8°
Sets 13:04:25 0° 210° (SSW) 3,221 6.0 -17.4°
